Weather History for KPPF - January, 2014

Change the Weather History Date:

Monday, January 20, 2014

  Actual Average Record
Temperature  
Mean Temperature 42 °F -  
Max Temperature 59 °F 41 °F 64 °F (2005)
Min Temperature 24 °F 22 °F -13 °F (1984)
Degree Days  
Heating Degree Days 24    
Moisture  
Dew Point 23 °F    
Average Humidity 53    
Maximum Humidity 85    
Minimum Humidity 28    
Precipitation  
Precipitation 0.00 in - - ()
Sea Level Pressure  
Sea Level Pressure 30.03 in    
Wind  
Wind Speed 6 mph (North)    
Max Wind Speed 22 mph    
Max Gust Speed 33 mph    
Visibility 10 miles    
Events      
Averages and records for this station are not official NWS values.
T = Trace of Precipitation, MM = Missing Value Source: NWS Daily Summary

Daily Weather History Graph

Daily Weather History Graph

Search for Another Location

Airport or City:

Trip Planner

Search our weather history database for the weather conditions in past years. The results will help you decide how hot, cold, wet, or windy it might be!

Date:

Astronomy

Jan. 20, 2014 Rise Set
Actual Time 7:33 AM CST 5:33 PM CST
Civil Twilight 7:04 AM CST 6:01 PM CST
Nautical Twilight 6:33 AM CST 6:33 PM CST
Astronomical Twilight 6:01 AM CST 7:04 PM CST
Moon 10:02 PM CST (1/20) 9:39 AM CST (1/20)
Length of Visible Light 10h 56m
Length of Day
10h 00m
Waning Gibbous, 82% of the Moon is Illuminated
Jan 20
Waning Gibbous
Jan 23
Last Quarter
Jan 30
New
Feb 6
First Quarter
Feb 14
Full

Hourly Weather History & Observations

Time (CST) Temp. Windchill Dew Point Humidity Pressure Visibility Wind Dir Wind Speed Gust Speed Precip Events Conditions
12:52 AM 32.0 °F 28.7 °F 23.0 °F 69% 29.90 in 10.0 mi SSE 3.5 mph - N/A   Clear
1:52 AM 39.0 °F 36.8 °F 25.0 °F 57% 29.88 in 10.0 mi South 3.5 mph - N/A   Clear
2:52 AM 30.9 °F - 23.0 °F 72% 29.88 in 10.0 mi Calm Calm - N/A   Clear
3:52 AM 28.9 °F - 21.9 °F 75% 29.87 in 10.0 mi Calm Calm - N/A   Clear
4:52 AM 27.0 °F - 21.9 °F 81% 29.87 in 10.0 mi Calm Calm - N/A   Clear
5:52 AM 25.0 °F - 21.0 °F 85% 29.88 in 10.0 mi Calm Calm - N/A   Clear
6:52 AM 24.1 °F 18.2 °F 19.9 °F 84% 29.91 in 10.0 mi NE 4.6 mph - N/A   Clear
7:52 AM 24.1 °F - 19.9 °F 84% 29.92 in 10.0 mi Calm Calm - N/A   Clear
8:52 AM 37.0 °F - 28.0 °F 70% 29.94 in 10.0 mi Calm Calm - N/A   Clear
9:52 AM 45.0 °F 42.6 °F 30.0 °F 56% 29.96 in 10.0 mi NE 4.6 mph - N/A   Clear
10:52 AM 51.1 °F - 28.9 °F 43% 29.99 in 10.0 mi North 8.1 mph - N/A   Clear
11:52 AM 55.9 °F - 28.9 °F 36% 29.99 in 10.0 mi North 11.5 mph - N/A   Clear
12:52 PM 57.0 °F - 28.0 °F 33% 29.99 in 10.0 mi North 15.0 mph - N/A   Clear
1:52 PM 59.0 °F - 28.0 °F 31% 29.98 in 10.0 mi North 11.5 mph 19.6 mph N/A   Clear
2:52 PM 55.9 °F - 24.1 °F 29% 30.00 in 10.0 mi North 16.1 mph 25.3 mph N/A   Clear
3:52 PM 57.9 °F - 25.0 °F 28% 30.05 in 10.0 mi North 18.4 mph 25.3 mph N/A   Clear
4:52 PM 55.0 °F - 23.0 °F 29% 30.09 in 10.0 mi North 13.8 mph - N/A   Clear
5:52 PM 46.0 °F 41.9 °F 23.0 °F 40% 30.14 in 10.0 mi North 8.1 mph - N/A   Clear
6:52 PM 46.0 °F 40.6 °F 23.0 °F 40% 30.18 in 10.0 mi NNW 11.5 mph - N/A   Clear
7:52 PM 42.1 °F 37.7 °F 21.9 °F 45% 30.19 in 10.0 mi North 6.9 mph - N/A   Clear
8:52 PM 32.0 °F 25.6 °F 19.9 °F 61% 30.20 in 10.0 mi NW 6.9 mph - N/A   Clear
9:52 PM 41.0 °F 32.2 °F 19.9 °F 43% 30.22 in 10.0 mi NNW 18.4 mph 26.5 mph N/A   Clear
10:52 PM 36.0 °F 24.7 °F 12.9 °F 39% 30.27 in 10.0 mi NNW 21.9 mph 32.2 mph N/A   Clear
11:52 PM 30.9 °F 18.4 °F 12.9 °F 47% 30.31 in 10.0 mi NNW 20.7 mph 33.4 mph N/A   Clear